星链-2263 (STARLINK-2263 )

导读 | 豆包AI

STARLINK-2263是美国SpaceX公司星链(Starlink)星座中的一颗通信卫星,于2021年3月24日发射升空。作为星链互联网项目的组成部分,它运行在近地轨道,旨在为全球偏远地区提供低延迟、高速宽带互联网服务。星链计划最终将部署数万颗卫星,构建全球卫星互联网络,STARLINK-2263的成功发射进一步扩充了星座规模,推动了全球无缝网络覆盖目标的实现。

基本信息
目录编号:
48003
目录名称:
STARLINK-2263
国际标识:
2021-024AC
轨道中心:
EARTH
卫星名称:
星链-2263
卫星全名:
星链-2263 (STARLINK-2263 )
卫星状态:
已陨落 最后检测时间 2025-05-31
发射日期:
2021-03-24 UTC
国别 :
美国 (US)
星等 :
--
轨道信息
数据来源 国际轨道数据
星历时间: 2025-05-31T11:30:12+0800
轨道信息已过期287天
半长轴: 6515.133km
偏心率: 0.0005178
轨道倾角: 53.025°
近地点辐角 258.314°
升交点赤经 133.597°
平近点角 160.172°
近地点: 133.624km
远地点: 140.372km
周期: 87.226分钟
每日圈数: 16.508892
详细信息
固有亮度:
5
最大亮度:
2.5
卫星平台:
Starlink V1.0
覆盖范围:
全球
运营商:
太空探索技术公司
运营商所在国:
美国
制造商(研发单位):
太空探索技术公司
制造商所在国:
美国
使用方式:
暂无
卫星简介
星链(Starlink)计划是由太空探索技术公司(SpaceX)提出的一个巨型低轨卫星互联网星座项目,计划在2019年至2024年间在太空搭建由约1.2万颗卫星组成的“星链”网络,其中1584颗将部署在地球上空550千米处的近地轨道,并从2020年开始工作。该卫星仍在工作。